QPF
0.01 0.02 0.03 0.05 0.06 0.04 0.04 0.04 0.04 0.04 0.05 0.07 0.08 0.07 0.06 0.06 0.04 0.03 0.03 0.05 0.06 0.07 0.09 0.10 0.12 0.11 0.10 0.08 0.08 0.09 0.08 0.09 0.09 0.08 0.09 0.08 0.09 0.05 0.04 0.05 0.05 0.06 0.06
0.03 0.05 0.06 0.06 0.06 0.05 0.05 0.05 0.06 0.05 0.05 0.05 0.07 0.07 0.07 0.06 0.05 0.05 0.07 0.05 0.04 0.05 0.07 0.12 0.11 0.11 0.11 0.12 0.11 0.10 0.09 0.10 0.08 0.11 0.14 0.12 0.10 0.06 0.03 0.03 0.04 0.05 0.05
0.05 0.05 0.05 0.05 0.09 0.10 0.09 0.12 0.08 0.06 0.05 0.06 0.06 0.06 0.06 0.05 0.06 0.06 0.07 0.05 0.04 0.03 0.04 0.06 0.09 0.09 0.09 0.11 0.11 0.10 0.10 0.09 0.08 0.10 0.14 0.15 0.13 0.11 0.07 0.04 0.04 0.05 0.05
0.03 0.04 0.04 0.03 0.04 0.06 0.06 0.09 0.07 0.05 0.06 0.06 0.06 0.05 0.06 0.07 0.07 0.05 0.05 0.05 0.04 0.04 0.04 0.06 0.06 0.08 0.08 0.10 0.07 0.08 0.09 0.09 0.09 0.09 0.09 0.10 0.10 0.12 0.16 0.14 0.08 0.05 0.05
0.01 0.01 0.01 0.02 0.02 0.03 0.03 0.04 0.04 0.05 0.06 0.06 0.06 0.07 0.06 0.07 0.07 0.06 0.06 0.08 0.06 0.04 0.04 0.07 0.06 0.07 0.07 0.08 0.08 0.09 0.07 0.07 0.09 0.09 0.08 0.08 0.08 0.08 0.11 0.14 0.10 0.07 0.05
0.01 0.01 0.01 0.01 0.01 0.01 0.02 0.03 0.03 0.05 0.06 0.05 0.05 0.05 0.05 0.07 0.08 0.06 0.05 0.05 0.05 0.04 0.03 0.04 0.06 0.05 0.07 0.08 0.08 0.07 0.05 0.06 0.08 0.08 0.09 0.09 0.07 0.07 0.09 0.11 0.11 0.10 0.06
0.00 0.01 0.01 0.02 0.03 0.02 0.02 0.03 0.04 0.04 0.05 0.04 0.03 0.03 0.04 0.06 0.07 0.06 0.06 0.04 0.04 0.04 0.03 0.03 0.04 0.05 0.07 0.07 0.07 0.07 0.07 0.07 0.09 0.08 0.08 0.08 0.06 0.06 0.07 0.10 0.11 0.10 0.08
0.00 0.00 0.01 0.03 0.04 0.03 0.02 0.03 0.04 0.04 0.03 0.03 0.03 0.04 0.05 0.05 0.06 0.06 0.05 0.04 0.04 0.04 0.03 0.02 0.02 0.03 0.03 0.04 0.08 0.08 0.08 0.08 0.08 0.06 0.08 0.07 0.04 0.04 0.06 0.08 0.11 0.11 0.10
0.00 0.01 0.01 0.02 0.03 0.02 0.02 0.03 0.04 0.04 0.04 0.04 0.05 0.05 0.06 0.05 0.06 0.05 0.04 0.03 0.04 0.05 0.05 0.03 0.02 0.03 0.03 0.04 0.07 0.07 0.08 0.09 0.08 0.08 0.09 0.07 0.05 0.05 0.05 0.06 0.08 0.11 0.12
0.00 0.01 0.01 0.02 0.02 0.02 0.01 0.02 0.03 0.03 0.03 0.04 0.04 0.05 0.05 0.04 0.04 0.04 0.03 0.03 0.04 0.06 0.07 0.06 0.05 0.04 0.04 0.03 0.04 0.05 0.06 0.08 0.08 0.09 0.10 0.09 0.07 0.07 0.05 0.05 0.06 0.08 0.10
0.00 0.00 0.01 0.01 0.01 0.02 0.02 0.01 0.02 0.03 0.02 0.03 0.04 0.05 0.05 0.05 0.05 0.05 0.03 0.03 0.04 0.06 0.06 0.06 0.07 0.06 0.06 0.05 0.03 0.03 0.04 0.06 0.07 0.06 0.07 0.06 0.06 0.07 0.06 0.05 0.05 0.05 0.06
0.00 0.00 0.00 0.01 0.01 0.01 0.02 0.02 0.02 0.02 0.02 0.01 0.03 0.04 0.05 0.04 0.04 0.04 0.04 0.03 0.03 0.04 0.06 0.07 0.08 0.08 0.07 0.05 0.03 0.02 0.03 0.04 0.06 0.06 0.07 0.06 0.08 0.10 0.06 0.05 0.05 0.05 0.05
0.00 0.00 0.00 0.00 0.00 0.00 0.01 0.02 0.02 0.02 0.02 0.01 0.02 0.02 0.03 0.03 0.04 0.04 0.05 0.05 0.04 0.03 0.03 0.05 0.07 0.08 0.09 0.07 0.04 0.03 0.03 0.03 0.04 0.05 0.06 0.07 0.12 0.11 0.07 0.06 0.07 0.05 0.04
0.00 0.00 0.01 0.01 0.01 0.00 0.00 0.01 0.01 0.01 0.02 0.01 0.02 0.02 0.02 0.02 0.03 0.03 0.03 0.03 0.03 0.03 0.02 0.03 0.04 0.06 0.08 0.07 0.06 0.04 0.05 0.05 0.04 0.04 0.05 0.06 0.10 0.09 0.10 0.07 0.05 0.04 0.04
0.00 0.00 0.01 0.01 0.01 0.01 0.01 0.01 0.01 0.01 0.01 0.02 0.01 0.01 0.01 0.01 0.01 0.02 0.02 0.02 0.02 0.02 0.02 0.02 0.02 0.04 0.07 0.08 0.07 0.05 0.04 0.06 0.08 0.07 0.06 0.06 0.05 0.05 0.06 0.04 0.03 0.03 0.04
0.01 0.01 0.01 0.02 0.02 0.02 0.02 0.02 0.02 0.01 0.01 0.01 0.01 0.01 0.01 0.01 0.02 0.02 0.02 0.02 0.02 0.03 0.03 0.03 0.03 0.03 0.03 0.06 0.06 0.05 0.05 0.05 0.07 0.08 0.09 0.08 0.05 0.04 0.03 0.03 0.02 0.02 0.02
0.01 0.01 0.01 0.02 0.02 0.03 0.02 0.02 0.02 0.02 0.01 0.01 0.01 0.01 0.01 0.02 0.02 0.02 0.03 0.04 0.04 0.04 0.04 0.03 0.03 0.04 0.04 0.06 0.06 0.06 0.06 0.07 0.08 0.10 0.10 0.07 0.05 0.04 0.03 0.03 0.02 0.01 0.01
0.01 0.01 0.02 0.02 0.02 0.03 0.03 0.03 0.03 0.03 0.03 0.03 0.03 0.02 0.02 0.03 0.03 0.04 0.04 0.05 0.06 0.05 0.04 0.03 0.04 0.05 0.04 0.05 0.06 0.06 0.06 0.08 0.07 0.06 0.06 0.06 0.07 0.06 0.05 0.04 0.03 0.02 0.01
0.02 0.02 0.02 0.03 0.03 0.04 0.04 0.04 0.04 0.04 0.04 0.04 0.04 0.04 0.04 0.05 0.04 0.04 0.04 0.06 0.06 0.06 0.06 0.06 0.06 0.06 0.04 0.04 0.05 0.05 0.04 0.06 0.07 0.06 0.06 0.05 0.06 0.06 0.05 0.04 0.04 0.04 0.03
0.03 0.02 0.02 0.04 0.04 0.05 0.06 0.06 0.06 0.06 0.05 0.04 0.04 0.03 0.04 0.04 0.05 0.04 0.05 0.06 0.06 0.05 0.05 0.06 0.06 0.06 0.06 0.06 0.05 0.04 0.03 0.05 0.05 0.05 0.06 0.04 0.06 0.06 0.05 0.04 0.04 0.05 0.05
0.02 0.02 0.02 0.03 0.04 0.06 0.08 0.07 0.05 0.05 0.04 0.04 0.04 0.02 0.02 0.03 0.03 0.04 0.04 0.04 0.05 0.05 0.05 0.05 0.05 0.06 0.06 0.07 0.05 0.03 0.04 0.04 0.05 0.04 0.03 0.03 0.03 0.03 0.04 0.04 0.04 0.05 0.04
0.02 0.03 0.03 0.04 0.04 0.06 0.10 0.09 0.06 0.05 0.05 0.04 0.04 0.03 0.03 0.03 0.02 0.03 0.03 0.03 0.03 0.03 0.04 0.05 0.05 0.06 0.06 0.05 0.03 0.03 0.03 0.03 0.06 0.05 0.04 0.03 0.03 0.02 0.02 0.02 0.02 0.03 0.02
0.02 0.02 0.02 0.03 0.04 0.05 0.11 0.11 0.08 0.06 0.06 0.05 0.05 0.05 0.04 0.04 0.04 0.04 0.04 0.04 0.05 0.04 0.04 0.04 0.05 0.05 0.05 0.03 0.02 0.02 0.02 0.02 0.04 0.05 0.04 0.04 0.03 0.02 0.02 0.02 0.02 0.02 0.02
0.02 0.02 0.02 0.02 0.03 0.04 0.05 0.07 0.07 0.06 0.06 0.05 0.07 0.07 0.06 0.05 0.05 0.06 0.05 0.06 0.05 0.06 0.05 0.05 0.04 0.04 0.04 0.03 0.01 0.01 0.01 0.02 0.03 0.03 0.03 0.03 0.03 0.02 0.02 0.01 0.02 0.03 0.03
0.02 0.02 0.02 0.03 0.03 0.02 0.04 0.05 0.06 0.05 0.04 0.05 0.07 0.06 0.04 0.06 0.07 0.06 0.05 0.05 0.05 0.05 0.05 0.04 0.04 0.04 0.04 0.03 0.02 0.01 0.01 0.01 0.01 0.03 0.03 0.03 0.02 0.01 0.01 0.01 0.01 0.02 0.02
0.03 0.02 0.02 0.01 0.02 0.01 0.02 0.03 0.05 0.05 0.05 0.05 0.06 0.05 0.04 0.04 0.04 0.05 0.04 0.04 0.05 0.03 0.02 0.02 0.03 0.03 0.03 0.03 0.03 0.03 0.01 0.01 0.01 0.03 0.03 0.03 0.03 0.03 0.03 0.03 0.02 0.02 0.03
MSLP
1001.13 1001.20 1001.36 1001.58 1001.87 1002.21 1002.61 1003.08 1003.62 1004.21 1004.85 1005.49 1006.10 1006.64 1007.08 1007.42 1007.65 1007.80 1007.92 1008.05 1008.23 1008.50 1008.86 1009.31 1009.83 1010.38 1010.93 1011.43 1011.87 1012.23 1012.49 1012.65 1012.70 1012.66 1012.52 1012.28 1011.96 1011.56 1011.10 1010.62 1010.15 1009.72 1009.36
1000.66 1000.78 1000.98 1001.24 1001.57 1001.95 1002.39 1002.91 1003.49 1004.12 1004.78 1005.43 1006.03 1006.53 1006.93 1007.21 1007.39 1007.51 1007.61 1007.74 1007.95 1008.25 1008.65 1009.15 1009.71 1010.29 1010.86 1011.38 1011.84 1012.21 1012.50 1012.69 1012.78 1012.78 1012.68 1012.48 1012.17 1011.78 1011.31 1010.80 1010.29 1009.81 1009.41
1000.08 1000.28 1000.55 1000.88 1001.26 1001.69 1002.18 1002.73 1003.33 1003.98 1004.65 1005.28 1005.85 1006.33 1006.69 1006.94 1007.10 1007.21 1007.33 1007.49 1007.74 1008.09 1008.54 1009.07 1009.65 1010.25 1010.81 1011.33 1011.77 1012.14 1012.43 1012.64 1012.77 1012.82 1012.78 1012.63 1012.38 1012.02 1011.57 1011.07 1010.55 1010.06 1009.62
999.46 999.76 1000.13 1000.55 1000.99 1001.47 1001.99 1002.56 1003.17 1003.82 1004.46 1005.07 1005.61 1006.06 1006.40 1006.64 1006.82 1006.96 1007.12 1007.35 1007.66 1008.06 1008.56 1009.12 1009.71 1010.29 1010.83 1011.31 1011.71 1012.05 1012.32 1012.54 1012.70 1012.79 1012.81 1012.73 1012.55 1012.25 1011.86 1011.39 1010.89 1010.39 1009.95
998.92 999.35 999.82 1000.33 1000.84 1001.36 1001.90 1002.46 1003.05 1003.67 1004.27 1004.84 1005.35 1005.78 1006.12 1006.38 1006.59 1006.79 1007.03 1007.33 1007.71 1008.19 1008.73 1009.31 1009.88 1010.43 1010.92 1011.33 1011.67 1011.96 1012.19 1012.40 1012.57 1012.69 1012.76 1012.75 1012.64 1012.43 1012.10 1011.69 1011.22 1010.75 1010.30
998.60 999.14 999.72 1000.30 1000.86 1001.41 1001.94 1002.48 1003.03 1003.59 1004.13 1004.66 1005.13 1005.54 1005.89 1006.18 1006.45 1006.73 1007.04 1007.43 1007.89 1008.42 1008.99 1009.58 1010.14 1010.63 1011.05 1011.39 1011.65 1011.86 1012.04 1012.21 1012.37 1012.51 1012.62 1012.66 1012.63 1012.49 1012.24 1011.89 1011.48 1011.04 1010.62
998.59 999.22 999.88 1000.52 1001.12 1001.66 1002.17 1002.66 1003.14 1003.62 1004.10 1004.57 1005.00 1005.40 1005.76 1006.09 1006.42 1006.77 1007.16 1007.63 1008.15 1008.72 1009.31 1009.89 1010.41 1010.84 1011.19 1011.43 1011.61 1011.74 1011.85 1011.97 1012.10 1012.24 1012.36 1012.45 1012.48 1012.41 1012.24 1011.97 1011.63 1011.24 1010.84
998.89 999.60 1000.32 1001.00 1001.59 1002.11 1002.57 1002.99 1003.39 1003.80 1004.20 1004.61 1005.01 1005.39 1005.76 1006.12 1006.50 1006.91 1007.36 1007.87 1008.44 1009.03 1009.62 1010.16 1010.63 1011.01 1011.27 1011.44 1011.53 1011.58 1011.62 1011.68 1011.77 1011.90 1012.03 1012.14 1012.21 1012.20 1012.11 1011.91 1011.64 1011.32 1010.97
999.45 1000.22 1000.98 1001.66 1002.24 1002.72 1003.11 1003.46 1003.79 1004.11 1004.45 1004.80 1005.16 1005.53 1005.91 1006.29 1006.69 1007.13 1007.62 1008.15 1008.71 1009.29 1009.85 1010.35 1010.77 1011.08 1011.28 1011.38 1011.40 1011.38 1011.36 1011.37 1011.43 1011.52 1011.65 1011.78 1011.88 1011.92 1011.89 1011.77 1011.58 1011.32 1011.03
1000.13 1000.95 1001.72 1002.39 1002.95 1003.39 1003.73 1004.01 1004.27 1004.53 1004.82 1005.13 1005.47 1005.82 1006.19 1006.58 1006.99 1007.43 1007.90 1008.41 1008.95 1009.48 1009.99 1010.44 1010.80 1011.06 1011.20 1011.25 1011.23 1011.17 1011.11 1011.08 1011.10 1011.18 1011.29 1011.43 1011.55 1011.63 1011.66 1011.61 1011.49 1011.30 1011.08
1000.78 1001.63 1002.41 1003.08 1003.61 1004.02 1004.32 1004.56 1004.78 1005.01 1005.27 1005.56 1005.88 1006.23 1006.59 1006.97 1007.36 1007.77 1008.20 1008.66 1009.13 1009.60 1010.04 1010.42 1010.73 1010.94 1011.05 1011.07 1011.03 1010.96 1010.88 1010.84 1010.85 1010.91 1011.02 1011.16 1011.30 1011.42 1011.49 1011.50 1011.44 1011.32 1011.16
1001.28 1002.15 1002.95 1003.62 1004.14 1004.53 1004.83 1005.06 1005.27 1005.49 1005.75 1006.05 1006.37 1006.71 1007.07 1007.42 1007.77 1008.13 1008.49 1008.87 1009.25 1009.63 1009.99 1010.31 1010.57 1010.74 1010.84 1010.87 1010.83 1010.78 1010.72 1010.68 1010.70 1010.76 1010.88 1011.02 1011.18 1011.32 1011.43 1011.48 1011.48 1011.42 1011.31
1001.58 1002.48 1003.29 1003.97 1004.50 1004.90 1005.21 1005.45 1005.69 1005.94 1006.22 1006.53 1006.87 1007.21 1007.55 1007.87 1008.17 1008.46 1008.74 1009.02 1009.31 1009.59 1009.87 1010.12 1010.33 1010.49 1010.59 1010.63 1010.64 1010.62 1010.59 1010.59 1010.63 1010.71 1010.84 1011.00 1011.17 1011.34 1011.48 1011.57 1011.61 1011.59 1011.51
1001.73 1002.65 1003.48 1004.17 1004.72 1005.14 1005.47 1005.76 1006.03 1006.31 1006.62 1006.96 1007.31 1007.65 1007.97 1008.26 1008.51 1008.72 1008.91 1009.09 1009.28 1009.47 1009.66 1009.85 1010.03 1010.18 1010.29 1010.37 1010.42 1010.45 1010.49 1010.53 1010.61 1010.72 1010.87 1011.05 1011.25 1011.43 1011.60 1011.72 1011.79 1011.80 1011.75
1001.85 1002.78 1003.61 1004.31 1004.87 1005.32 1005.68 1005.99 1006.30 1006.61 1006.95 1007.31 1007.66 1007.99 1008.29 1008.53 1008.72 1008.86 1008.96 1009.05 1009.14 1009.25 1009.37 1009.51 1009.66 1009.80 1009.94 1010.06 1010.16 1010.25 1010.34 1010.45 1010.57 1010.73 1010.91 1011.12 1011.34 1011.55 1011.73 1011.88 1011.97 1012.00 1011.98
1002.08 1003.00 1003.82 1004.51 1005.07 1005.52 1005.89 1006.22 1006.53 1006.86 1007.20 1007.55 1007.89 1008.20 1008.46 1008.65 1008.78 1008.84 1008.87 1008.88 1008.89 1008.92 1008.99 1009.09 1009.21 1009.36 1009.52 1009.68 1009.83 1009.98 1010.13 1010.30 1010.47 1010.67 1010.90 1011.13 1011.38 1011.62 1011.83 1011.99 1012.11 1012.16 1012.14
1002.57 1003.44 1004.22 1004.87 1005.40 1005.83 1006.18 1006.48 1006.77 1007.08 1007.39 1007.71 1008.01 1008.27 1008.48 1008.62 1008.68 1008.68 1008.65 1008.59 1008.54 1008.52 1008.54 1008.61 1008.73 1008.88 1009.05 1009.25 1009.44 1009.65 1009.85 1010.07 1010.29 1010.53 1010.79 1011.07 1011.34 1011.61 1011.84 1012.03 1012.17 1012.23 1012.23
1003.39 1004.19 1004.89 1005.48 1005.94 1006.30 1006.59 1006.83 1007.07 1007.31 1007.55 1007.80 1008.04 1008.24 1008.38 1008.46 1008.47 1008.42 1008.33 1008.23 1008.14 1008.08 1008.08 1008.13 1008.24 1008.40 1008.60 1008.81 1009.05 1009.29 1009.53 1009.79 1010.05 1010.33 1010.62 1010.92 1011.23 1011.52 1011.78 1011.99 1012.15 1012.23 1012.24
1004.50 1005.22 1005.83 1006.31 1006.68 1006.95 1007.14 1007.30 1007.44 1007.58 1007.74 1007.90 1008.05 1008.17 1008.24 1008.26 1008.22 1008.12 1008.00 1007.87 1007.76 1007.69 1007.68 1007.73 1007.84 1008.01 1008.22 1008.46 1008.71 1008.98 1009.25 1009.53 1009.81 1010.11 1010.43 1010.75 1011.07 1011.38 1011.66 1011.89 1012.06 1012.15 1012.17
1005.81 1006.43 1006.93 1007.31 1007.57 1007.73 1007.82 1007.86 1007.90 1007.94 1007.99 1008.05 1008.11 1008.15 1008.15 1008.11 1008.02 1007.89 1007.75 1007.61 1007.49 1007.42 1007.42 1007.48 1007.60 1007.78 1008.00 1008.26 1008.52 1008.80 1009.08 1009.36 1009.65 1009.95 1010.26 1010.59 1010.91 1011.22 1011.51 1011.75 1011.93 1012.03 1012.06
1007.18 1007.70 1008.10 1008.38 1008.53 1008.59 1008.57 1008.51 1008.44 1008.39 1008.34 1008.31 1008.28 1008.23 1008.17 1008.07 1007.95 1007.80 1007.64 1007.50 1007.40 1007.34 1007.35 1007.43 1007.57 1007.77 1008.00 1008.26 1008.53 1008.80 1009.07 1009.34 1009.61 1009.88 1010.17 1010.47 1010.77 1011.07 1011.34 1011.58 1011.75 1011.86 1011.90
1008.47 1008.90 1009.22 1009.41 1009.47 1009.45 1009.35 1009.21 1009.07 1008.93 1008.80 1008.69 1008.59 1008.48 1008.36 1008.22 1008.06 1007.90 1007.74 1007.60 1007.51 1007.47 1007.51 1007.61 1007.77 1007.97 1008.21 1008.47 1008.73 1008.98 1009.22 1009.45 1009.68 1009.91 1010.15 1010.40 1010.65 1010.91 1011.15 1011.36 1011.53 1011.63 1011.67
1009.57 1009.95 1010.20 1010.33 1010.34 1010.26 1010.12 1009.94 1009.74 1009.55 1009.38 1009.21 1009.06 1008.90 1008.73 1008.55 1008.37 1008.19 1008.03 1007.90 1007.83 1007.81 1007.86 1007.98 1008.15 1008.37 1008.60 1008.85 1009.08 1009.30 1009.50 1009.67 1009.83 1009.99 1010.15 1010.33 1010.51 1010.70 1010.89 1011.07 1011.21 1011.30 1011.34
1010.48 1010.81 1011.03 1011.12 1011.11 1011.02 1010.86 1010.67 1010.46 1010.25 1010.05 1009.86 1009.66 1009.47 1009.27 1009.06 1008.86 1008.67 1008.50 1008.37 1008.30 1008.29 1008.35 1008.48 1008.65 1008.86 1009.09 1009.31 1009.50 1009.67 1009.80 1009.90 1009.97 1010.04 1010.11 1010.19 1010.28 1010.39 1010.52 1010.64 1010.75 1010.83 1010.87
1011.21 1011.52 1011.72 1011.80 1011.79 1011.71 1011.57 1011.39 1011.20 1011.00 1010.79 1010.59 1010.38 1010.16 1009.93 1009.70 1009.47 1009.27 1009.09 1008.95 1008.88 1008.87 1008.92 1009.04 1009.20 1009.39 1009.58 1009.75 1009.88 1009.98 1010.03 1010.03 1010.01 1009.97 1009.93 1009.91 1009.91 1009.93 1009.98 1010.05 1010.12 1010.19 1010.23
1011.87 1012.15 1012.33 1012.42 1012.43 1012.37 1012.26 1012.12 1011.95 1011.77 1011.58 1011.37 1011.15 1010.92 1010.67 1010.42 1010.18 1009.95 1009.75 1009.61 1009.52 1009.49 1009.52 1009.61 1009.73 1009.87 1010.00 1010.10 1010.16 1010.16 1010.12 1010.02 1009.88 1009.73 1009.58 1009.45 1009.35 1009.29 1009.27 1009.29 1009.33 1009.38 1009.43
Thickness
5803 5801 5798 5794 5789 5786 5782 5778 5774 5770 5768 5764 5761 5758 5756 5756 5756 5756 5754 5752 5749 5748 5746 5744 5743 5741 5739 5737 5735 5733 5732 5732 5733 5731 5730 5732 5735 5736 5737 5738 5737 5736 5735
5796 5794 5791 5789 5786 5781 5778 5775 5771 5768 5765 5763 5761 5759 5758 5756 5755 5754 5752 5749 5747 5745 5744 5742 5740 5738 5736 5735 5733 5731 5728 5729 5731 5727 5723 5721 5725 5730 5735 5735 5734 5734 5733
5791 5788 5785 5783 5780 5776 5774 5772 5768 5765 5763 5761 5759 5758 5756 5753 5751 5749 5748 5747 5746 5744 5742 5740 5738 5736 5735 5732 5731 5730 5727 5724 5727 5728 5723 5717 5716 5721 5727 5731 5732 5731 5731
5791 5788 5783 5779 5777 5775 5773 5770 5766 5763 5760 5758 5756 5753 5749 5746 5747 5746 5746 5745 5744 5742 5741 5739 5737 5735 5733 5731 5729 5729 5726 5724 5722 5724 5726 5725 5724 5717 5715 5722 5727 5728 5728
5790 5785 5784 5780 5778 5775 5772 5769 5764 5760 5757 5755 5753 5750 5748 5746 5746 5744 5743 5741 5740 5739 5738 5736 5734 5732 5731 5729 5728 5726 5725 5724 5722 5721 5722 5722 5723 5723 5716 5713 5718 5722 5725
5789 5786 5784 5780 5776 5774 5771 5766 5761 5756 5754 5751 5750 5747 5745 5743 5741 5739 5737 5737 5737 5736 5736 5734 5732 5730 5728 5727 5726 5724 5723 5722 5722 5721 5720 5719 5719 5718 5718 5714 5714 5715 5720
5785 5781 5779 5776 5771 5769 5767 5763 5756 5752 5750 5748 5746 5744 5743 5741 5739 5737 5735 5734 5733 5732 5732 5731 5729 5727 5725 5724 5723 5722 5721 5720 5719 5719 5719 5720 5721 5722 5720 5716 5714 5714 5716
5783 5780 5776 5773 5769 5767 5764 5759 5753 5748 5746 5744 5742 5741 5740 5738 5737 5736 5734 5733 5732 5731 5730 5728 5726 5724 5723 5722 5721 5720 5719 5718 5718 5718 5718 5718 5719 5720 5719 5716 5713 5709 5710
5779 5776 5773 5770 5767 5762 5758 5754 5749 5745 5743 5741 5739 5737 5736 5734 5733 5733 5731 5731 5730 5729 5727 5725 5723 5721 5720 5719 5718 5716 5716 5716 5715 5715 5715 5715 5716 5718 5718 5719 5716 5709 5703
5774 5771 5768 5765 5762 5759 5754 5750 5747 5743 5740 5738 5735 5734 5732 5731 5730 5729 5727 5726 5726 5725 5723 5721 5720 5719 5717 5716 5715 5714 5714 5713 5713 5712 5711 5711 5712 5714 5716 5716 5716 5715 5709
5767 5765 5762 5760 5757 5754 5751 5746 5743 5739 5736 5733 5731 5729 5728 5727 5725 5723 5723 5722 5721 5720 5720 5718 5717 5715 5714 5713 5712 5712 5712 5711 5710 5710 5709 5709 5710 5710 5712 5713 5713 5712 5711
5763 5760 5757 5754 5750 5747 5744 5740 5737 5734 5731 5730 5727 5724 5723 5721 5720 5719 5718 5717 5716 5716 5715 5714 5713 5712 5711 5710 5709 5708 5709 5709 5708 5707 5707 5706 5708 5707 5708 5709 5709 5709 5709
5755 5753 5750 5746 5742 5739 5737 5734 5732 5729 5727 5725 5721 5719 5717 5715 5713 5713 5713 5712 5711 5710 5710 5709 5708 5708 5707 5706 5706 5706 5706 5706 5706 5706 5705 5705 5704 5703 5704 5705 5706 5706 5708
5745 5743 5740 5738 5735 5733 5730 5728 5725 5724 5722 5719 5715 5713 5711 5710 5709 5708 5707 5707 5706 5704 5704 5704 5704 5704 5703 5703 5703 5703 5703 5704 5704 5704 5703 5703 5702 5701 5700 5702 5702 5703 5702
5735 5733 5730 5728 5726 5724 5722 5721 5719 5717 5715 5712 5709 5707 5706 5705 5704 5702 5701 5701 5700 5700 5699 5699 5698 5699 5699 5698 5698 5698 5700 5700 5700 5701 5700 5700 5699 5698 5698 5699 5698 5698 5697
5726 5723 5721 5718 5716 5714 5713 5712 5710 5709 5708 5705 5703 5702 5701 5699 5698 5697 5696 5695 5694 5694 5693 5692 5692 5692 5693 5693 5692 5693 5695 5696 5695 5695 5695 5696 5696 5695 5695 5694 5694 5694 5694
5717 5713 5710 5707 5706 5705 5704 5703 5702 5701 5699 5697 5696 5695 5694 5692 5691 5691 5689 5688 5687 5686 5686 5686 5686 5686 5685 5686 5686 5687 5689 5690 5691 5691 5691 5692 5694 5693 5692 5691 5690 5690 5690
5708 5704 5700 5698 5697 5697 5696 5695 5694 5692 5690 5689 5689 5688 5687 5685 5684 5683 5682 5681 5680 5679 5679 5679 5680 5680 5680 5679 5679 5680 5682 5685 5686 5687 5687 5687 5688 5689 5688 5688 5688 5687 5687
5700 5696 5693 5690 5688 5687 5686 5686 5684 5683 5681 5681 5680 5680 5679 5678 5677 5675 5674 5674 5673 5672 5673 5673 5673 5674 5673 5673 5673 5673 5676 5678 5680 5682 5683 5683 5683 5683 5683 5684 5683 5683 5684
5691 5688 5685 5682 5679 5678 5678 5676 5674 5673 5672 5673 5673 5673 5672 5671 5670 5669 5668 5668 5667 5667 5667 5667 5668 5668 5668 5668 5668 5667 5670 5672 5674 5676 5678 5678 5678 5678 5678 5678 5678 5678 5679
5681 5679 5676 5672 5670 5670 5669 5666 5665 5664 5665 5666 5666 5665 5664 5664 5663 5663 5662 5661 5660 5660 5660 5660 5661 5662 5663 5663 5662 5662 5664 5666 5669 5671 5673 5674 5673 5673 5673 5673 5673 5674 5674
5669 5668 5665 5663 5662 5661 5659 5657 5656 5658 5659 5658 5658 5658 5658 5658 5658 5656 5655 5655 5654 5654 5653 5653 5654 5656 5658 5658 5657 5657 5658 5659 5662 5665 5668 5668 5667 5667 5667 5667 5668 5668 5668
5658 5657 5655 5654 5653 5653 5651 5648 5649 5651 5651 5651 5651 5651 5651 5651 5651 5649 5648 5647 5647 5647 5647 5647 5647 5650 5653 5654 5653 5652 5652 5653 5655 5659 5660 5659 5659 5659 5660 5661 5661 5661 5662
5647 5647 5645 5644 5644 5644 5643 5642 5642 5642 5642 5642 5642 5643 5643 5643 5643 5643 5643 5641 5640 5640 5640 5641 5642 5644 5646 5647 5646 5646 5646 5646 5648 5650 5651 5652 5652 5654 5655 5656 5656 5657 5658
5638 5637 5636 5635 5635 5636 5635 5635 5635 5634 5634 5634 5634 5635 5636 5636 5636 5636 5636 5635 5635 5634 5633 5635 5636 5637 5638 5639 5639 5640 5641 5642 5643 5642 5644 5645 5646 5648 5650 5651 5653 5653 5654
5629 5628 5628 5628 5628 5628 5628 5628 5628 5627 5625 5625 5627 5628 5628 5629 5629 5629 5629 5628 5629 5628 5628 5628 5629 5632 5632 5633 5633 5634 5634 5634 5634 5635 5638 5641 5642 5645 5646 5647 5648 5649 5650